{"data":{"norad_id":62617,"intl_designator":"2025-009J","name":"SCOT-1 (SCOT)","alt_names":[],"object_type":"PAYLOAD","status":"ACTIVE","operator":null,"country":"SING","launch_date":"2025-01-14","launch_site_code":"AFWTR","launch_vehicle":null,"mission":null,"orbit_class":"UNKNOWN","rcs_meters":null,"size_class":null,"mass_kg":null,"dimensions":null,"purposes":[],"wikipedia_slug":null,"has_3d_model":false,"image_url":null,"decayed_at":null,"tle_current":{"epoch":"2026-05-25T03:18:39.167712Z","epoch_age_seconds":66412,"freshness":"FRESH","line1":"1 62617U 25009J   26145.13795333  .00056152  00000+0  95479-3 0  9995","line2":"2 62617  97.3857 232.3181 0002173  57.5625 302.5837 15.51253387 75770","mean_motion":15.51253387,"eccentricity":0.0002173,"inclination_deg":97.3857,"raan_deg":232.3181,"arg_perigee_deg":57.5625,"mean_anomaly_deg":302.5837,"bstar":0.00095479,"rev_number":7577,"period_min":92.828161541348,"perigee_km":411.58975677307,"apogee_km":414.54121337309,"semimajor_km":6791.2024850731,"source":"CELESTRAK","updated_at":"2026-05-25T13:38:03.128066Z"}}}